Location: Elma
(49.8670°N, 95.9170°W)
Time: 23:26:16
(UTC-05:00)

ISS - Pass Details

Date: 27 March 2019
Orbit: 408 x 410 km, 51.6° (Epoch: 22 April)

Event Time Altitude Azimuth Distance (km) Brightness Sun altitude
Rises 21:53:57 0° 274° (W) 2,337 1.1 -20.0°
Reaches altitude 10° 21:56:03 10° 278° (W) 1,475 0.0 -20.3°
Enters shadow 21:59:19 61° 359° (N) 470 -3.5 -20.8°
